LGX37B EGPB-EKVG

Flight info

Callsign LGX37B
Flight time 0h 46m
Altitude 34000
Route SUM DCT PEMOS/M081F340 DCT MY
Aircraft B38M/M-SDE1FGHILORVWXY/HB1

Departure

Time 2026-05-08 13:47
Airport Sumburgh Airport (EGPB)

Arrival

Time 2026-05-08 14:33
Airport Vágar Airport (EKVG)
Time Latitude Longitude Altitude Speed Heading
2026-05-08 13:34 59.87942 -1.29368 43 ft 0 kts 77°
2026-05-08 13:41 59.87942 -1.29367 43 ft 2 kts 76°
2026-05-08 13:42 59.87962 -1.29452 40 ft 22 kts 223°
2026-05-08 13:42 59.87807 -1.29506 44 ft 22 kts 145°
2026-05-08 13:42 59.87690 -1.29317 45 ft 22 kts 144°
2026-05-08 13:42 59.87550 -1.29117 41 ft 27 kts 144°
2026-05-08 13:43 59.87538 -1.28887 42 ft 21 kts 54°
2026-05-08 13:43 59.87658 -1.28565 45 ft 34 kts 53°
2026-05-08 13:43 59.87767 -1.28334 42 ft 11 kts 53°
2026-05-08 13:43 59.87757 -1.28302 43 ft 1 kts 220°
2026-05-08 13:44 59.87756 -1.28305 41 ft 0 kts 234°
2026-05-08 13:44 59.87746 -1.28336 41 ft 10 kts 235°
2026-05-08 13:44 59.87654 -1.28585 46 ft 36 kts 233°
2026-05-08 13:44 59.87513 -1.28996 41 ft 23 kts 277°
2026-05-08 13:45 59.87631 -1.29221 43 ft 34 kts 322°
2026-05-08 13:45 59.87857 -1.29549 42 ft 25 kts 322°
2026-05-08 13:45 59.88017 -1.29797 41 ft 37 kts 322°
2026-05-08 13:45 59.88131 -1.29669 45 ft 32 kts 84°
2026-05-08 13:46 59.88161 -1.29125 45 ft 47 kts 84°
2026-05-08 13:46 59.88189 -1.28421 46 ft 40 kts 94°
2026-05-08 13:46 59.88218 -1.28263 43 ft 7 kts 252°
2026-05-08 13:46 59.88194 -1.28700 45 ft 67 kts 263°
2026-05-08 13:47 59.88108 -1.30090 45 ft 132 kts 263°
2026-05-08 13:47 59.88012 -1.32003 626 ft 138 kts 265°
2026-05-08 13:47 59.87985 -1.34007 1279 ft 152 kts 258°
2026-05-08 13:47 59.87471 -1.35900 1961 ft 162 kts 236°
2026-05-08 13:48 59.86962 -1.37958 2733 ft 172 kts 242°
2026-05-08 13:48 59.86854 -1.40425 3331 ft 196 kts 285°
2026-05-08 13:48 59.87635 -1.42808 4067 ft 218 kts 309°
2026-05-08 13:48 59.88761 -1.44994 4855 ft 234 kts 314°
2026-05-08 13:49 59.89998 -1.47298 5622 ft 252 kts 313°
2026-05-08 13:49 59.91276 -1.49860 6404 ft 268 kts 310°
2026-05-08 13:49 59.92553 -1.52632 7389 ft 274 kts 309°
2026-05-08 13:49 59.93836 -1.55499 8386 ft 280 kts 309°
2026-05-08 13:50 59.95152 -1.58421 9391 ft 285 kts 309°
2026-05-08 13:50 59.96498 -1.61366 10323 ft 291 kts 309°
2026-05-08 13:50 59.97908 -1.64448 10896 ft 309 kts 309°
2026-05-08 13:50 59.99399 -1.67711 11437 ft 327 kts 309°
2026-05-08 13:51 60.00969 -1.71157 11927 ft 344 kts 309°
2026-05-08 13:51 60.02621 -1.74797 12383 ft 361 kts 309°
2026-05-08 13:51 60.04327 -1.78554 13104 ft 368 kts 309°
2026-05-08 13:51 60.06064 -1.82379 13892 ft 373 kts 309°
2026-05-08 13:52 60.07817 -1.86249 14682 ft 378 kts 309°
2026-05-08 13:52 60.09594 -1.90186 15448 ft 382 kts 309°
2026-05-08 13:52 60.11360 -1.94104 16166 ft 386 kts 309°
2026-05-08 13:52 60.13170 -1.98129 16874 ft 390 kts 308°
2026-05-08 13:53 60.14993 -2.02185 17549 ft 393 kts 308°
2026-05-08 13:53 60.16832 -2.06288 18208 ft 397 kts 308°
2026-05-08 13:53 60.18691 -2.10441 18842 ft 401 kts 308°
2026-05-08 13:53 60.20561 -2.14629 19438 ft 405 kts 308°
2026-05-08 13:54 60.22451 -2.18870 20019 ft 408 kts 308°
2026-05-08 13:54 60.24354 -2.23146 20588 ft 412 kts 308°
2026-05-08 13:54 60.26276 -2.27469 21133 ft 415 kts 308°
2026-05-08 13:54 60.28209 -2.31829 21666 ft 419 kts 308°
2026-05-08 13:55 60.30160 -2.36240 22191 ft 422 kts 308°
2026-05-08 13:55 60.32125 -2.40689 22711 ft 426 kts 308°
2026-05-08 13:55 60.36091 -2.49695 23716 ft 433 kts 308°
2026-05-08 13:56 60.38095 -2.54257 24183 ft 436 kts 308°
2026-05-08 13:56 60.40113 -2.58868 24653 ft 439 kts 308°
2026-05-08 13:56 60.42141 -2.63508 25109 ft 442 kts 307°
2026-05-08 13:56 60.44159 -2.68133 25566 ft 444 kts 307°
2026-05-08 13:57 60.46208 -2.72838 25999 ft 447 kts 307°
2026-05-08 13:57 60.48267 -2.77577 26409 ft 449 kts 307°
2026-05-08 13:57 60.50343 -2.82364 26812 ft 452 kts 307°
2026-05-08 13:57 60.52422 -2.87168 27194 ft 454 kts 307°
2026-05-08 13:58 60.54514 -2.92014 27569 ft 457 kts 307°
2026-05-08 13:58 60.56613 -2.96883 27929 ft 459 kts 307°
2026-05-08 13:58 60.58719 -3.01784 28274 ft 461 kts 307°
2026-05-08 13:58 60.60835 -3.06715 28607 ft 464 kts 307°
2026-05-08 13:59 60.62964 -3.11686 28935 ft 466 kts 307°
2026-05-08 13:59 60.65097 -3.16680 29248 ft 468 kts 307°
2026-05-08 13:59 60.67239 -3.21708 29559 ft 470 kts 307°
2026-05-08 13:59 60.69378 -3.26735 30012 ft 469 kts 307°
2026-05-08 14:00 60.71511 -3.31759 30425 ft 468 kts 307°
2026-05-08 14:00 60.73637 -3.36781 30825 ft 467 kts 307°
2026-05-08 14:00 60.75758 -3.41806 31204 ft 467 kts 307°
2026-05-08 14:00 60.77853 -3.46777 31593 ft 467 kts 307°
2026-05-08 14:01 60.79998 -3.51874 31967 ft 466 kts 307°
2026-05-08 14:01 60.82084 -3.56843 32335 ft 466 kts 307°
2026-05-08 14:01 60.84222 -3.61950 32702 ft 466 kts 307°
2026-05-08 14:01 60.86330 -3.66996 33079 ft 466 kts 308°
2026-05-08 14:02 60.88407 -3.71979 33449 ft 466 kts 308°
2026-05-08 14:02 60.90514 -3.77045 33733 ft 467 kts 308°
2026-05-08 14:02 60.92629 -3.82142 33925 ft 470 kts 308°
2026-05-08 14:03 60.96896 -3.92460 33937 ft 475 kts 308°
2026-05-08 14:03 61.01013 -4.03057 33949 ft 472 kts 302°
2026-05-08 14:04 61.04737 -4.14207 33935 ft 472 kts 302°
2026-05-08 14:04 61.08420 -4.25401 33937 ft 470 kts 302°
2026-05-08 14:05 61.12093 -4.36573 33931 ft 469 kts 302°
2026-05-08 14:05 61.15756 -4.47756 33923 ft 469 kts 302°
2026-05-08 14:06 61.19386 -4.58913 33914 ft 469 kts 301°
2026-05-08 14:06 61.23028 -4.70151 33910 ft 469 kts 301°
2026-05-08 14:07 61.26660 -4.81412 33901 ft 469 kts 301°
2026-05-08 14:07 61.30284 -4.92716 33897 ft 469 kts 301°
2026-05-08 14:08 61.33896 -5.04024 33888 ft 470 kts 301°
2026-05-08 14:08 61.37508 -5.15382 33876 ft 469 kts 301°
2026-05-08 14:09 61.41107 -5.26773 33867 ft 470 kts 301°
2026-05-08 14:09 61.44705 -5.38206 33862 ft 470 kts 301°
2026-05-08 14:10 61.48284 -5.49639 33856 ft 468 kts 301°
2026-05-08 14:10 61.51813 -5.60968 33848 ft 467 kts 301°
2026-05-08 14:11 61.55347 -5.72370 33840 ft 465 kts 301°
2026-05-08 14:11 61.58861 -5.83764 33840 ft 465 kts 301°
2026-05-08 14:11 61.60622 -5.89495 33631 ft 469 kts 301°
2026-05-08 14:12 61.62381 -5.95229 33371 ft 464 kts 301°
2026-05-08 14:12 61.64123 -6.00924 33124 ft 463 kts 301°
2026-05-08 14:12 61.65866 -6.06639 32873 ft 464 kts 301°
2026-05-08 14:12 61.67603 -6.12352 32624 ft 463 kts 301°
2026-05-08 14:13 61.69338 -6.18073 32375 ft 464 kts 300°
2026-05-08 14:13 61.71071 -6.23800 32134 ft 463 kts 300°
2026-05-08 14:13 61.72802 -6.29533 31876 ft 464 kts 300°
2026-05-08 14:13 61.74524 -6.35244 31620 ft 454 kts 300°
2026-05-08 14:14 61.76194 -6.40790 31366 ft 442 kts 300°
2026-05-08 14:14 61.77818 -6.46201 31113 ft 431 kts 300°
2026-05-08 14:14 61.79400 -6.51490 30857 ft 421 kts 300°
2026-05-08 14:14 61.80942 -6.56667 30596 ft 412 kts 300°
2026-05-08 14:15 61.82449 -6.61737 30355 ft 403 kts 300°
2026-05-08 14:15 61.83929 -6.66715 30096 ft 395 kts 299°
2026-05-08 14:15 61.85374 -6.71592 29833 ft 388 kts 299°
2026-05-08 14:15 61.86785 -6.76364 29379 ft 385 kts 299°
2026-05-08 14:16 61.88208 -6.81194 27996 ft 393 kts 299°
2026-05-08 14:16 61.89671 -6.86175 26499 ft 401 kts 297°
2026-05-08 14:16 61.90685 -6.91655 25004 ft 399 kts 279°
2026-05-08 14:16 61.91150 -6.97468 23538 ft 399 kts 276°
2026-05-08 14:17 61.91636 -7.03262 22045 ft 400 kts 285°
2026-05-08 14:17 61.92351 -7.06857 21085 ft 402 kts 296°
2026-05-08 14:17 61.93725 -7.12002 19591 ft 399 kts 298°
2026-05-08 14:17 61.95179 -7.16983 18113 ft 395 kts 301°
2026-05-08 14:18 61.96662 -7.21858 16623 ft 390 kts 301°
2026-05-08 14:18 61.98108 -7.26685 15128 ft 384 kts 300°
2026-05-08 14:18 61.99496 -7.31487 13656 ft 378 kts 300°
2026-05-08 14:18 62.00685 -7.36394 12170 ft 370 kts 285°
2026-05-08 14:19 62.00900 -7.41773 10667 ft 363 kts 262°
2026-05-08 14:19 62.00099 -7.46808 9214 ft 358 kts 244°
2026-05-08 14:19 61.98546 -7.50898 7735 ft 358 kts 219°
2026-05-08 14:19 61.96354 -7.53317 6270 ft 353 kts 204°
2026-05-08 14:20 61.94490 -7.56350 5837 ft 322 kts 233°
2026-05-08 14:20 61.93469 -7.60310 5956 ft 293 kts 251°
2026-05-08 14:20 61.93078 -7.64369 6015 ft 270 kts 268°
2026-05-08 14:20 61.93245 -7.68165 6039 ft 250 kts 284°
2026-05-08 14:21 61.93874 -7.71484 6054 ft 237 kts 300°
2026-05-08 14:21 61.94849 -7.74145 6063 ft 222 kts 314°
2026-05-08 14:21 61.96034 -7.76061 6056 ft 209 kts 328°
2026-05-08 14:21 61.97386 -7.77278 6076 ft 221 kts 343°
2026-05-08 14:22 61.98970 -7.77811 6076 ft 233 kts 353°
2026-05-08 14:22 62.00575 -7.78057 6073 ft 233 kts 354°
2026-05-08 14:22 62.02206 -7.78308 6069 ft 231 kts 354°
2026-05-08 14:22 62.03822 -7.78498 6063 ft 235 kts
2026-05-08 14:23 62.05433 -7.77776 5942 ft 249 kts 21°
2026-05-08 14:23 62.06923 -7.75708 5711 ft 257 kts 43°
2026-05-08 14:23 62.07961 -7.72550 5467 ft 265 kts 65°
2026-05-08 14:23 62.08373 -7.68819 5210 ft 263 kts 87°
2026-05-08 14:24 62.08097 -7.64958 4988 ft 264 kts 110°
2026-05-08 14:24 62.07193 -7.61582 4762 ft 262 kts 125°
2026-05-08 14:24 62.06145 -7.58436 4499 ft 259 kts 126°
2026-05-08 14:24 62.05084 -7.55310 4250 ft 258 kts 126°
2026-05-08 14:25 62.04024 -7.52206 3998 ft 256 kts 126°
2026-05-08 14:25 62.02974 -7.49088 3844 ft 263 kts 126°
2026-05-08 14:25 62.01917 -7.45919 3828 ft 261 kts 126°
2026-05-08 14:25 62.00868 -7.42794 3825 ft 260 kts 126°
2026-05-08 14:26 61.99821 -7.39681 3825 ft 260 kts 126°
2026-05-08 14:26 61.98765 -7.36551 3818 ft 261 kts 126°
2026-05-08 14:26 61.97708 -7.33404 3820 ft 261 kts 127°
2026-05-08 14:26 61.96650 -7.30276 3813 ft 258 kts 127°
2026-05-08 14:27 61.95588 -7.27166 3814 ft 262 kts 127°
2026-05-08 14:27 61.94531 -7.24050 3823 ft 264 kts 127°
2026-05-08 14:27 61.93469 -7.20920 3819 ft 259 kts 127°
2026-05-08 14:27 61.92632 -7.17514 3812 ft 260 kts 108°
2026-05-08 14:28 61.92375 -7.13753 3482 ft 262 kts 87°
2026-05-08 14:28 61.92792 -7.09987 2949 ft 262 kts 65°
2026-05-08 14:28 61.93757 -7.06956 2392 ft 237 kts 44°
2026-05-08 14:28 61.95057 -7.05145 1799 ft 217 kts 13°
2026-05-08 14:29 61.96432 -7.05152 1779 ft 185 kts 343°
2026-05-08 14:29 61.97606 -7.05996 1801 ft 165 kts 338°
2026-05-08 14:29 61.98661 -7.06821 1809 ft 157 kts 337°
2026-05-08 14:29 61.99650 -7.07613 1814 ft 151 kts 337°
2026-05-08 14:30 62.00599 -7.08375 1813 ft 146 kts 337°
2026-05-08 14:30 62.01490 -7.09295 1805 ft 139 kts 323°
2026-05-08 14:30 62.02152 -7.10811 1803 ft 139 kts 301°
2026-05-08 14:30 62.02605 -7.12613 1816 ft 140 kts 297°
2026-05-08 14:31 62.03060 -7.14438 1667 ft 136 kts 297°
2026-05-08 14:31 62.03503 -7.16225 1452 ft 135 kts 298°
2026-05-08 14:31 62.03947 -7.17995 1260 ft 137 kts 297°
2026-05-08 14:32 62.04806 -7.21506 800 ft 135 kts 295°
2026-05-08 14:32 62.05241 -7.23257 589 ft 135 kts 300°
2026-05-08 14:32 62.05699 -7.24961 398 ft 134 kts 297°
2026-05-08 14:32 62.06112 -7.26718 270 ft 122 kts 297°
2026-05-08 14:33 62.06422 -7.27988 294 ft 51 kts 297°
2026-05-08 14:33 62.06549 -7.28108 291 ft 19 kts 18°
2026-05-08 14:33 62.06621 -7.27940 293 ft 13 kts 52°
2026-05-08 14:33 62.06660 -7.27878 288 ft 0 kts 30°